[[{"header":{"parameterUnit":"m.s-1","parameterCategory":1,"la1":30.2991,"la2":30.254,"lo1":-89.0895,"lo2":-89.0444,"dy":0.0017,"dx":0.0017,"nx":28,"ny":28,"refTime":"2023-11-15T03:00:00:Z","depth":0,"parameterNumber":2,"parameterNumberName":"U-component_of_WINDS"},"data":[0,0,0,0,0,0,0,0,0,0,0,0,0,0,0,0,0,0,0,0,0,0,0,0,0,0,0,0,0,0,0,0,0,0,0,0,0,0,0,0,0,0,0,0,0,0,0,0,0,0,0,0,0,0,0,0,0,0,-4.9992,-4.9994,0,-5.0181,-5.0183,-5.0186,-5.0124,-5.0119,-5.0115,-5.0112,-5.0308,-5.0317,-5.0326,0,0,0,0,0,0,0,0,0,0,0,0,0,-4.9579,-4.9587,-4.9992,-4.9994,-4.9997,-5.0181,-5.0184,-5.0186,-5.0124,-5.0119,-5.0114,-5.011,-5.0305,-5.0316,-5.0326,0,0,0,0,0,0,0,0,0,0,0,0,0,-4.9763,-4.959,-4.9992,-4.9988,-4.9989,-5.018,-5.0184,-5.0187,-5.0125,-5.0119,-5.0113,-5.0107,-5.0301,-5.0315,-5.0328,-5.0535,0,0,-5.0369,-5.0375,0,0,0,0,0,0,0,0,-4.9752,-4.9778,-4.9986,-4.9989,-4.9991,-5.0122,-5.011,-5.0304,-5.0127,-5.0074,-5.0111,-5.0104,-5.0251,-5.0269,-5.0318,-5.0544,-5.0552,-5.0371,-5.0379,-5.0385,-5.0388,0,0,0,0,0,0,0,-4.974,-4.9769,-5.0067,-4.9989,-4.9992,-4.9978,-4.9997,-5.0146,-5.0195,-5.0078,-5.0074,-5.0097,-5.0251,-5.0305,-5.0322,-5.0555,-5.037,-5.0382,-5.0391,-5.0396,-5.0961,-5.0968,0,0,0,0,0,0,-4.9725,-4.9759,-5.0061,-5.0073,-4.9854,-4.999,-5.0012,-5.0086,-5.0193,-5.0203,-5.0102,-5.0093,-5.0285,-5.0306,-5.0329,-5.0579,-5.0385,-5.0397,-5.0405,-5.0955,-5.0963,-5.097,0,0,0,0,0,0,-4.9717,-4.9753,-5.0053,-4.9915,-4.9952,-5.0004,-5.0088,-5.0093,-5.0147,-5.0211,-5.022,-5.0148,-5.0281,-5.0309,-5.0484,-5.0585,-5.0403,-5.0416,-5.0946,-5.0957,-5.0967,-5.1081,0,0,0,0,0,0,-4.9705,-4.975,-4.9829,-4.9917,-4.996,-5.0205,-5.0094,-5.0102,-5.017,-5.016,-5.0256,-5.0266,-5.0278,-5.0464,-5.0497,-5.06,-5.0426,-5.0938,-5.0951,-5.0963,-5.1068,-5.1094,-5.1115,0,0,0,0,0,-4.969,-4.9853,-4.9833,-4.987,-5.0059,-5.0211,-5.0236,-5.0245,-5.0178,-5.0258,-5.03,-5.0263,-5.0568,-5.0482,-5.0519,-5.0628,-5.0931,-5.0947,-5.0962,-5.1058,-5.1089,-5.1115,0,0,0,0,0,0,-4.9776,-4.9865,-4.9843,-5.0039,-5.0118,-5.02,-5.0302,-5.0277,-5.0378,-5.0365,-5.0373,-5.0395,-5.0575,-5.0618,-5.0521,-5.0834,-5.074,-5.0763,-5.0799,-5.083,-5.0853,-5.084,-5.0438,0,0,0,0,0,-4.9818,-4.9933,-5.0005,-5.0171,-5.0211,-5.025,-5.0316,-5.0317,-5.0399,-5.0433,-5.0487,-5.0569,-5.0683,-5.0758,-5.0867,-5.1073,-5.1094,-5.1166,-5.119,-5.1209,-5.123,-5.1344,-5.1377,-5.1021,-5.1021,-5.1021,0,0,-4.9905,-4.9968,-5.0041,-5.019,-5.0251,-5.0372,-5.0278,-5.041,-5.05,-5.0453,-5.0621,-5.0664,-5.0756,-5.0948,-5.1035,-5.099,-5.1332,-5.1228,-5.1243,-5.1254,-5.1363,-5.1397,-5.1427,-5.1032,-5.103,-5.1028,0,0,-5.0127,-5.0185,-5.0331,-5.0394,-5.0487,-5.0511,-5.0546,-5.0633,-5.0659,-5.0828,-5.0795,-5.0902,-5.1099,-5.1166,-5.1226,-5.1473,-5.1444,-5.1508,-5.1632,-5.1743,-5.1772,-5.1797,-5.1887,-5.1919,-5.1528,-5.1528,-5.1529,0,-5.0224,-5.0404,-5.0409,-5.0543,-5.0611,-5.0572,-5.0721,-5.0782,-5.0906,-5.0954,-5.0901,-5.1147,-5.1206,-5.1414,-5.1474,-5.1523,-5.1565,-5.1498,-5.1767,-5.1792,-5.1815,-5.1902,-5.1935,-5.1536,-5.1535,-5.1534,-5.1533,0,-5.052,-5.0645,-5.0752,-5.0873,-5.0951,-5.1092,-5.1119,-5.1199,-5.1192,-5.1222,-5.1395,-5.1465,-5.1587,-5.1636,-5.1631,-5.1844,-5.1813,-5.1764,-5.167,-5.1857,-5.1938,-5.1971,-5.1546,-5.1544,-5.1541,-5.154,0,0,-5.0803,-5.0924,-5.0963,-5.1018,-5.1118,-5.1216,-5.1355,-5.1474,-5.1543,-5.1629,-5.1748,-5.1914,-5.1869,-5.1937,-5.1939,-5.2037,-5.223,-5.1975,-5.1977,-5.2022,-5.2472,-5.251,-5.2548,-5.221,-5.2216,-5.2221,-5.2465,0,-5.1034,-5.1279,-5.1287,-5.1511,-5.1628,-5.1593,-5.1714,-5.1789,-5.1821,-5.1925,-5.196,-5.2079,-5.2009,-5.205,-5.2145,-5.2187,-5.2321,-5.2169,-5.2322,-5.2328,-5.2303,-5.259,-5.2632,-5.2858,-5.2496,-5.2502,-5.2505,0,-5.1338,-5.1434,-5.1669,-5.1753,-5.1803,-5.1912,-5.2022,-5.2121,-5.2206,-5.2222,-5.2298,-5.2286,-5.243,-5.2329,-5.2528,-5.2424,-5.2487,-5.2517,-5.2526,-5.2543,-5.243,-5.2618,-5.293,-5.2965,-5.2555,-5.2551,-5.2548,0,-5.1523,-5.1711,-5.1877,-5.1925,-5.2026,-5.2104,-5.215,-5.2228,-5.23,-5.2396,-5.2443,-5.2555,-5.2617,-5.2704,-5.2723,-5.2648,-5.2923,-5.2823,-5.2942,-5.2942,-5.3004,-5.3001,-5.3334,-5.3041,-5.304,-5.3039,-5.3039,0,-5.1783,-5.1929,-5.1962,-5.2064,-5.2227,-5.2235,-5.2396,-5.2436,-5.2506,-5.2617,-5.2592,-5.2696,-5.2713,-5.2822,-5.2837,-5.3001,-5.3028,-5.3047,-5.305,-5.3051,-5.3049,-5.3094,-5.308,-5.3048,-5.3046,-5.3045,-5.3043,0,-5.2019,-5.2047,-5.2225,-5.2306,-5.233,-5.2447,-5.2517,-5.2615,-5.2643,-5.2783,-5.2817,-5.2862,-5.2988,-5.3015,-5.3164,-5.3175,-5.337,-5.3356,-5.3342,-5.3341,-5.346,-5.345,-5.3837,-5.3889,-5.3558,-5.3561,-5.3564,0,-5.2184,-5.2295,-5.2388,-5.246,-5.251,-5.2626,-5.2698,-5.271,-5.2787,-5.2892,-5.2978,-5.3102,-5.3201,-5.3405,-5.3452,-5.3566,-5.3557,-5.3684,-5.3574,-5.3572,-5.3562,-5.3556,-5.3568,-5.3706,-5.371,-5.3713,-5.3715,0,-5.2475,-5.2483,-5.2588,-5.2699,-5.2786,-5.2874,-5.2958,-5.3018,-5.3041,-5.3129,-5.3258,-5.3335,-5.3487,-5.3611,-5.3726,-5.3774,-5.375,-5.3749,-5.3783,-5.3787,-5.3775,-5.3786,-5.3402,-5.3741,-5.3738,-5.3736,-5.3735,-5.3734,-5.2682,-5.278,-5.2861,-5.298,-5.3044,-5.3122,-5.3219,-5.326,-5.3367,-5.3492,-5.3492,-5.3633,-5.3715,-5.3867,-5.3922,-5.4033,-5.3993,-5.4042,-5.4055,-5.4068,-5.408,-5.3755,-5.4054,-5.4053,-5.4052,-5.4052,-5.4051,0,-5.2974,-5.3024,-5.3133,-5.325,-5.3344,-5.3311,-5.3402,-5.3483,-5.3607,-5.3685,-5.3784,-5.3932,-5.4052,-5.4108,-5.4226,-5.4305,-5.4297,-5.4336,-5.4331,-5.4343,-5.4108,-5.4067,-5.434,-5.434,-5.434,-5.434,-5.434,-5.434,-5.3137,-5.3302,-5.3319,-5.3516,-5.3565,-5.3703,-5.3758,-5.3831,-5.3894,-5.406,-5.4159,-5.4194,-5.4265,-5.4388,-5.4497,-5.451,-5.4556,-5.4601,-5.461,-5.4389,-5.436,-5.4332,-5.4294,-5.461,-5.4611,-5.4837,-5.4839,-5.484]},{"header":{"parameterUnit":"m.s-1","parameterCategory":1,"la1":30.2991,"la2":30.254,"lo1":-89.0895,"lo2":-89.0444,"dy":0.0017,"dx":0.0017,"nx":28,"ny":28,"refTime":"2023-11-15T03:00:00:Z","depth":0,"parameterNumber":3,"parameterNumberName":"V-component_of_WINDS"},"data":[0,0,0,0,0,0,0,0,0,0,0,0,0,0,0,0,0,0,0,0,0,0,0,0,0,0,0,0,0,0,0,0,0,0,0,0,0,0,0,0,0,0,0,0,0,0,0,0,0,0,0,0,0,0,0,0,0,0,-5.1322,-5.1322,0,-5.1296,-5.1296,-5.1296,-5.1182,-5.1179,-5.1176,-5.1174,-5.1149,-5.1151,-5.1153,0,0,0,0,0,0,0,0,0,0,0,0,0,-5.1274,-5.1276,-5.1322,-5.1322,-5.1322,-5.1296,-5.1296,-5.1296,-5.1182,-5.1179,-5.1175,-5.1172,-5.1149,-5.1151,-5.1153,0,0,0,0,0,0,0,0,0,0,0,0,0,-5.1277,-5.1276,-5.1322,-5.1262,-5.1256,-5.1296,-5.1296,-5.1295,-5.1183,-5.1179,-5.1175,-5.1171,-5.1148,-5.1151,-5.1153,-5.1251,0,0,-5.1162,-5.1163,0,0,0,0,0,0,0,0,-5.1277,-5.1279,-5.1271,-5.1266,-5.126,-5.1238,-5.127,-5.1281,-5.1184,-5.1211,-5.1174,-5.1169,-5.1182,-5.1182,-5.1186,-5.125,-5.1249,-5.1162,-5.1164,-5.1165,-5.1166,0,0,0,0,0,0,0,-5.1277,-5.1279,-5.1312,-5.1271,-5.1264,-5.1236,-5.1232,-5.1272,-5.1219,-5.1208,-5.12,-5.1198,-5.1178,-5.1184,-5.1185,-5.1248,-5.1162,-5.1165,-5.1166,-5.1167,-5.1389,-5.1393,0,0,0,0,0,0,-5.1285,-5.128,-5.1313,-5.1311,-5.1258,-5.124,-5.1236,-5.1249,-5.1219,-5.121,-5.1201,-5.1193,-5.1181,-5.1181,-5.1183,-5.1294,-5.1165,-5.1168,-5.1169,-5.1385,-5.139,-5.1395,0,0,0,0,0,0,-5.1284,-5.1289,-5.1314,-5.1293,-5.1294,-5.1245,-5.1261,-5.1251,-5.1256,-5.1214,-5.1204,-5.1216,-5.1178,-5.1179,-5.1234,-5.1292,-5.1169,-5.1171,-5.138,-5.1387,-5.1392,-5.1518,0,0,0,0,0,0,-5.1283,-5.1289,-5.1326,-5.1295,-5.1296,-5.1366,-5.1265,-5.1253,-5.126,-5.1249,-5.1225,-5.1217,-5.1175,-5.1231,-5.1237,-5.1294,-5.1174,-5.1375,-5.1383,-5.139,-5.1509,-5.1528,-5.1545,0,0,0,0,0,-5.1282,-5.1363,-5.1328,-5.1333,-5.134,-5.1369,-5.137,-5.1318,-5.1266,-5.1302,-5.1274,-5.1218,-5.1285,-5.1237,-5.1244,-5.1302,-5.1371,-5.1381,-5.139,-5.1501,-5.1524,-5.1544,0,0,0,0,0,0,-5.1403,-5.1358,-5.1319,-5.1392,-5.1385,-5.135,-5.1394,-5.1345,-5.1354,-5.1343,-5.128,-5.1275,-5.134,-5.1326,-5.1274,-5.1394,-5.1318,-5.1329,-5.14,-5.1422,-5.144,-5.1442,-5.1176,0,0,0,0,0,-5.1438,-5.1465,-5.1424,-5.1493,-5.1491,-5.1444,-5.1454,-5.1415,-5.1406,-5.1403,-5.1379,-5.1373,-5.1392,-5.1406,-5.1422,-5.1506,-5.1499,-5.1549,-5.1567,-5.1582,-5.1592,-5.1635,-5.1657,-5.1426,-5.1426,-5.1426,0,0,-5.1512,-5.149,-5.1511,-5.1517,-5.1507,-5.1536,-5.1442,-5.1477,-5.1498,-5.1408,-5.1458,-5.1441,-5.143,-5.15,-5.1529,-5.149,-5.1654,-5.1594,-5.1606,-5.1609,-5.1647,-5.1669,-5.1689,-5.1432,-5.1431,-5.143,0,0,-5.166,-5.1646,-5.1701,-5.1693,-5.1678,-5.1646,-5.1659,-5.1631,-5.1615,-5.1664,-5.1597,-5.1622,-5.1657,-5.1651,-5.1653,-5.1797,-5.1746,-5.1804,-5.1898,-5.1941,-5.1959,-5.1975,-5.2026,-5.2045,-5.1815,-5.1815,-5.1815,0,-5.1753,-5.1794,-5.1736,-5.1775,-5.1779,-5.1698,-5.1753,-5.1748,-5.174,-5.1745,-5.1701,-5.1742,-5.1729,-5.1796,-5.1831,-5.1835,-5.1849,-5.1807,-5.1961,-5.1976,-5.199,-5.2038,-5.2058,-5.1822,-5.1822,-5.1821,-5.182,0,-5.1908,-5.1938,-5.1984,-5.1977,-5.1986,-5.2034,-5.1983,-5.2,-5.196,-5.1932,-5.1983,-5.1964,-5.1974,-5.1986,-5.1948,-5.2048,-5.2024,-5.1972,-5.1895,-5.202,-5.2065,-5.2083,-5.1833,-5.183,-5.1828,-5.1826,0,0,-5.2133,-5.2092,-5.211,-5.2105,-5.2083,-5.2105,-5.2148,-5.2157,-5.2172,-5.2169,-5.2204,-5.2235,-5.2185,-5.2187,-5.2148,-5.2185,-5.2301,-5.2128,-5.2126,-5.216,-5.2409,-5.2449,-5.2471,-5.2266,-5.2269,-5.2272,-5.241,0,-5.2274,-5.2345,-5.2294,-5.2374,-5.24,-5.2322,-5.2359,-5.235,-5.2325,-5.2344,-5.2316,-5.2339,-5.2273,-5.2273,-5.2307,-5.228,-5.235,-5.2269,-5.2298,-5.23,-5.2304,-5.2494,-5.2537,-5.2668,-5.2427,-5.243,-5.2432,0,-5.2449,-5.2452,-5.2534,-5.2505,-5.2514,-5.2549,-5.2551,-5.257,-5.2558,-5.2537,-5.2539,-5.2489,-5.253,-5.2454,-5.2509,-5.2455,-5.2464,-5.2453,-5.2457,-5.2458,-5.2374,-5.2501,-5.2709,-5.2729,-5.2459,-5.2456,-5.2455,0,-5.2604,-5.2629,-5.2681,-5.2679,-5.2647,-5.2673,-5.2661,-5.2644,-5.2652,-5.2655,-5.2659,-5.2668,-5.2673,-5.268,-5.2634,-5.2583,-5.2696,-5.2616,-5.268,-5.2681,-5.2708,-5.2707,-5.292,-5.2714,-5.2713,-5.2713,-5.2713,0,-5.2767,-5.2821,-5.275,-5.2783,-5.284,-5.278,-5.2839,-5.2818,-5.2804,-5.2831,-5.2764,-5.2792,-5.2729,-5.275,-5.2714,-5.2765,-5.2768,-5.2753,-5.2743,-5.2759,-5.2761,-5.2764,-5.2754,-5.2718,-5.2717,-5.2716,-5.2715,0,-5.2951,-5.2906,-5.2957,-5.2921,-5.2914,-5.2958,-5.2927,-5.2955,-5.2925,-5.296,-5.2965,-5.2919,-5.2939,-5.2894,-5.2909,-5.2885,-5.2958,-5.2933,-5.2962,-5.2954,-5.3021,-5.3016,-5.3244,-5.3271,-5.3048,-5.305,-5.3052,0,-5.3058,-5.3097,-5.3065,-5.3077,-5.3068,-5.309,-5.3097,-5.304,-5.305,-5.3038,-5.3068,-5.3083,-5.3092,-5.3129,-5.3097,-5.3108,-5.3084,-5.3163,-5.3085,-5.31,-5.3085,-5.3083,-5.3087,-5.3179,-5.3182,-5.3184,-5.3186,0,-5.3253,-5.3228,-5.3241,-5.3246,-5.3256,-5.3257,-5.3254,-5.3268,-5.3207,-5.3222,-5.3242,-5.3249,-5.3263,-5.3279,-5.3282,-5.327,-5.3219,-5.3211,-5.3226,-5.3243,-5.3258,-5.3251,-5.3006,-5.3206,-5.3204,-5.3202,-5.3201,-5.3201,-5.3402,-5.3432,-5.3414,-5.3429,-5.342,-5.3418,-5.3443,-5.3415,-5.343,-5.3436,-5.3402,-5.3429,-5.3415,-5.3414,-5.3407,-5.3428,-5.3392,-5.3415,-5.3421,-5.3427,-5.3438,-5.3255,-5.3429,-5.3428,-5.3427,-5.3427,-5.3426,0,-5.3593,-5.3576,-5.3592,-5.3588,-5.3601,-5.3549,-5.3542,-5.3557,-5.3581,-5.3571,-5.3581,-5.3603,-5.3618,-5.3587,-5.3597,-5.362,-5.3597,-5.3625,-5.3623,-5.3621,-5.3469,-5.3455,-5.3643,-5.3643,-5.3643,-5.3643,-5.3643,-5.3643,-5.3694,-5.3742,-5.3715,-5.3759,-5.3742,-5.3767,-5.3768,-5.3766,-5.3757,-5.3785,-5.3796,-5.3775,-5.3757,-5.3765,-5.3777,-5.3767,-5.3774,-5.381,-5.3793,-5.3652,-5.3631,-5.3611,-5.3597,-5.3812,-5.3813,-5.3942,-5.3943,-5.3944]}]]